Location: Griffin Ranch
(33.6186°N, 110.6622°W)
Time: 01:25:29
(UTC-07:00)

Cosmos 1812 - Visible Passes

Search period start: 25 April 2014 00:00
Search period end: 05 May 2014 00:00
Orbit: 535 x 544 km, 82.5° (Epoch: 24 April)

Date Brightness Start Highest point End Pass type
(mag) Time Alt. Az. Time Alt. Az. Time Alt. Az.
01 May 6.1 22:54:18 10° NNW 22:54:18 10° NNW 22:54:19 10° NNW visible
02 May 6.0 22:46:23 12° NNW 22:46:23 12° NNW 22:46:43 10° NNW visible
03 May 5.8 22:38:27 14° NNW 22:38:27 14° NNW 22:39:07 10° NNW visible
04 May 5.6 22:30:28 17° NNW 22:30:28 17° NNW 22:31:30 10° NNW visible
